Location: Pinhead Observatory
(34.4473°N, 118.1985°W)
Time: 09:58:25
(UTC-07:00)

Daily predictions for brighter satellites

Satellite Brightness Start Highest point End
(mag) Time Altitude Azimuth Time Altitude Azimuth Time Altitude Azimuth
Cosmos 2346 Rocket 4.4 18:53:28 10° N 18:59:33 82° E 19:05:35 10° S
Cosmos 1441 Rocket 4.2 18:56:04 10° NNW 18:59:43 52° W 19:03:21 10° S
Meteor 1-28 Rocket 3.8 18:56:23 10° NNE 18:59:46 33° E 19:03:07 10° SSE
COSMO-SKYMED 1 2.6 18:55:45 10° NNE 19:00:07 89° ESE 19:04:26 10° SSW
Milstar 3 4.3 18:53:04 10° WSW 19:01:43 65° S 19:18:31 10° E
Helios 1B rocket 3.7 18:59:26 10° NE 19:02:32 20° E 19:05:36 10° SE
USA 215 3.6 18:58:34 10° NE 19:04:46 45° SE 19:10:55 10° SSW
Cosmos 1805 4.0 19:01:50 10° SSE 19:05:18 31° E 19:08:48 10° NNE
Aureole 2 Rocket 4.1 19:01:13 10° SW 19:05:28 49° WNW 19:09:39 10° N
GPS 2-04 Rocket1 2.5 19:04:16 10° WSW 19:07:39 59° SSE 19:11:09 10° E
Cosmos 1624 Rocket 4.2 19:03:10 10° NNW 19:08:23 77° WSW 19:13:33 10° S
Cosmos 2278 Rocket 3.6 19:03:25 10° NW 19:08:42 43° WSW 19:14:00 10° S
IDEFIX/ARIANE 42P 3.7 19:04:39 10° S 19:09:42 50° W 19:14:48 10° NNW
Cosmos 1072 Rocket 4.4 19:05:15 10° S 19:11:19 74° E 19:17:25 10° N
Cosmos 1953 2.7 19:09:28 10° SSE 19:13:11 40° E 19:16:56 10° NNE
SAR-Lupe-1 4.2 19:13:25 10° SSE 19:16:51 48° ENE 19:20:17 10° N
Gbstr 26 Del rocket 3.6 19:13:05 10° SSW 19:16:58 40° SE 19:21:35 10° ENE
Cosmos 2297 3.9 19:11:49 10° NNW 19:17:29 80° WSW 19:23:05 10° SSE
Cosmos 1076 Rocket 3.6 19:13:17 10° N 19:17:33 54° E 19:21:48 10° SSE
Meteor 1-29 4.2 19:14:57 10° NE 19:17:42 21° E 19:20:24 10° SSE
Cosmos 1766 Rocket 3.9 19:13:42 10° N 19:17:51 43° E 19:21:58 10° SSE
ATLAS CENTAUR R/B 3.3 19:16:22 10° NW 19:19:55 30° WSW 19:23:14 10° S
Cosmos 1437 4.4 19:17:02 10° NNW 19:20:08 40° W 19:23:12 10° SSW
NOAA 12 4.2 19:16:16 10° SSE 19:21:23 55° ENE 19:26:32 10° N
Cosmos-2242 3.2 19:18:22 10° SSE 19:22:32 48° E 19:26:46 10° NNE
Cosmos 1943 4.1 19:18:33 10° SSE 19:23:07 26° ESE 19:27:41 10° NE
Cosmos 2369 Rocket 3.8 19:21:37 10° NNE 19:25:00 16° NE 19:27:09 13° E
Cosmos 1603 3.7 19:23:30 10° SSW 19:29:12 76° ESE 19:34:58 10° NNE
Cosmos 1470 3.9 19:26:51 10° SE 19:29:55 22° E 19:32:59 10° NE
ATLAS CENTAUR R/B 3.9 19:26:35 10° WSW 19:31:00 60° NW 19:44:31 10° NE
OAO 3 Rocket 3.1 19:26:51 10° W 19:31:35 85° N 19:35:09 18° E
SEDSat Delta rocket 4.2 19:26:06 10° W 19:32:35 68° S 19:37:58 17° ESE
BREEZE-M DEB (TANK) 3.0 19:31:40 10° WNW 19:34:02 48° SW 19:39:39 10° SE
Meteor 1-24 Rocket 4.5 19:29:19 10° NNW 19:34:44 55° W 19:39:58 10° S
Cosmos 1452 Rocket 3.4 19:32:47 10° NNW 19:38:03 74° ENE 19:43:16 10° SSE
Spot 1 4.2 19:34:55 10° SSE 19:39:35 59° ENE 19:44:00 10° N
Cosmos 1674 3.8 19:37:27 10° NNE 19:40:40 24° ENE 19:41:20 23° E
SJ-6B 3.0 19:38:15 10° S 19:42:12 76° WSW 19:46:17 10° NNW
ASTRO E2 3.4 19:41:20 10° W 19:45:11 43° S 19:47:22 22° SE
ASTEX 1 3.9 19:41:25 10° NNE 19:45:54 35° E 19:50:20 10° SSE
Cosmos 2034 Rocket 4.1 19:40:06 10° S 19:46:21 85° W 19:52:43 10° N
In-Cosmos 22 4.2 19:40:35 10° N 19:46:22 89° ENE 19:52:06 10° S
Cosmos 1842 Rocket 3.8 19:43:07 10° SSE 19:47:10 41° E 19:51:15 10° NNE
Cosmos 1408 Rocket 3.8 19:45:15 10° NNW 19:49:34 70° W 19:53:50 10° S
Cosmos 1500 Rocket 4.2 19:46:22 10° NNE 19:50:25 34° E 19:52:00 26° ESE
Cosmos 1758 4.3 19:53:08 10° SSW 19:57:05 49° W 20:01:05 10° N
ISS -2.0 19:54:55 10° WSW 19:57:58 37° NW 20:00:05 17° NNE
Cosmos 1420 Rocket 4.0 19:52:50 10° N 19:58:06 61° ENE 20:02:05 17° SSE
ATLAS 5 CENTAUR R/B 4.0 19:55:57 10° WSW 19:59:55 25° NW 20:04:10 10° N
BREEZE-M TANK 3.7 19:53:22 10° WNW 20:00:31 45° SW 20:02:34 19° SSE
ALOS 2.5 19:59:05 26° SE 20:01:22 47° ENE 20:05:50 10° N
Helios 1A 2.8 19:57:39 10° SSE 20:01:51 80° ENE 20:06:04 10° N
FengYun 1-2 T 4.1 19:57:07 10° SSE 20:02:35 69° ENE 20:08:02 10° N
CENTAUR R/B 2.3 19:57:42 10° SSW 20:03:34 75° ESE 20:10:08 10° NE
Cosmos 1544 3.7 20:00:23 10° SSW 20:04:03 60° W 20:07:46 10° N
Spot 2 Rocket 3.6 20:04:02 10° S 20:09:04 77° WSW 20:14:06 10° NNW
Resurs 1-3 3.5 20:08:50 12° SSE 20:12:55 88° W 20:17:20 10° NNW
Cosmos 1048 Rocket 4.4 20:08:03 10° SSW 20:13:19 67° WNW 20:18:34 10° N
HJ-1C 4.4 20:11:20 10° S 20:14:34 46° W 20:17:49 10° NNW
Resurs 01 Rocket 2.3 20:14:33 10° S 20:18:55 56° W 20:23:18 10° NNW
Cosmos 1743 Rocket 3.8 20:15:16 10° NNW 20:19:41 70° W 20:23:53 11° S
Meteosat 1 Rocket2 4.1 20:17:56 10° WSW 20:24:25 41° S 20:25:14 39° SSE
CZ-2D R/B 3.8 20:26:22 48° N 20:26:22 48° N 20:29:18 10° N
Cosmos 1174 4.4 20:21:11 10° SW 20:26:12 65° WNW 20:28:41 23° NNE
Cosmos 158 Rocket 3.9 20:26:16 10° SSW 20:31:08 76° WNW 20:36:01 10° NNE
FENGYUN 3A 3.7 20:32:55 27° S 20:35:59 79° WSW 20:41:25 10° NNW
H-2A R/B 3.7 20:38:39 43° NNW 20:38:39 43° NNW 20:41:21 10° NNW
GP-B 4.0 20:42:40 10° N 20:45:35 41° N 20:45:35 41° N
GPS 2-04 Rocket1 4.3 20:43:56 10° W 20:45:48 29° W 20:45:48 29° W
USA 215 4.1 20:41:32 10° NNE 20:47:42 46° NW 20:53:50 10° WSW
OAO 1 Rocket 4.4 20:44:24 10° W 20:49:28 79° WSW 20:49:28 79° WSW
SeaSat 1 4.0 20:54:19 25° SSW 20:54:19 25° SSW 20:56:20 10° SSW
Cosmos 2279 Rocket 4.3 20:54:12 49° NNE 20:54:12 49° NNE 20:58:42 10° NNE
Cosmos 1943 Rocket 3.6 20:59:54 10° N 21:02:42 28° N 21:02:42 28° N
Cosmos 2369 Rocket 2.5 21:03:53 10° NNW 21:09:00 63° WNW 21:09:00 63° WNW
Cosmos 1655 Rocket 4.2 21:05:17 10° N 21:10:29 64° N 21:10:29 64° N
Cosmos 2026 Rocket 4.2 21:10:36 10° N 21:16:08 67° WNW 21:16:08 67° WNW
